Year,Month,Day,Hour,Minute,Value (Times are PST for temperature in C)
2015,05,19,00,00,15.60
2015,05,19,00,01,15.60
2015,05,19,00,02,15.60
2015,05,19,00,03,15.60
2015,05,19,00,04,15.50
2015,05,19,00,05,15.50
2015,05,19,00,06,15.50
2015,05,19,00,07,15.50
2015,05,19,00,08,15.50
2015,05,19,00,09,15.40
2015,05,19,00,10,15.40
2015,05,19,00,11,15.40
2015,05,19,00,12,15.40
2015,05,19,00,13,15.40
2015,05,19,00,14,15.40
2015,05,19,00,15,15.40
2015,05,19,00,16,15.30
2015,05,19,00,17,15.30
2015,05,19,00,18,15.30
2015,05,19,00,19,15.30
2015,05,19,00,20,15.20
2015,05,19,00,21,15.20
2015,05,19,00,22,15.20
2015,05,19,00,23,15.10
2015,05,19,00,24,15.10
2015,05,19,00,25,15.10
2015,05,19,00,26,15.00
2015,05,19,00,27,15.00
2015,05,19,00,28,15.00
2015,05,19,00,29,14.90
2015,05,19,00,30,14.90
2015,05,19,00,31,14.90
2015,05,19,00,32,14.90
2015,05,19,00,33,14.90
2015,05,19,00,34,14.80
2015,05,19,00,35,14.80
2015,05,19,00,36,14.80
2015,05,19,00,37,14.80
2015,05,19,00,38,14.80
2015,05,19,00,39,14.80
2015,05,19,00,40,14.70
2015,05,19,00,41,14.70
2015,05,19,00,42,14.70
2015,05,19,00,43,14.70
2015,05,19,00,44,14.70
2015,05,19,00,45,14.60
2015,05,19,00,46,14.60
2015,05,19,00,47,14.60
2015,05,19,00,48,14.50
2015,05,19,00,49,14.50
2015,05,19,00,50,14.40
2015,05,19,00,51,14.40
2015,05,19,00,52,14.40
2015,05,19,00,53,14.30
2015,05,19,00,54,14.30
2015,05,19,00,55,14.30
2015,05,19,00,56,14.20
2015,05,19,00,57,14.20
2015,05,19,00,58,14.20
2015,05,19,00,59,14.10
2015,05,19,01,00,14.10
2015,05,19,01,01,14.10
2015,05,19,01,02,14.00
2015,05,19,01,03,14.00
2015,05,19,01,04,13.90
2015,05,19,01,05,13.90
2015,05,19,01,06,13.90
2015,05,19,01,07,13.90
2015,05,19,01,08,13.80
2015,05,19,01,09,13.80
2015,05,19,01,10,13.80
2015,05,19,01,11,13.80
2015,05,19,01,12,13.70
2015,05,19,01,13,13.70
2015,05,19,01,14,13.70
2015,05,19,01,15,13.70
2015,05,19,01,16,13.70
2015,05,19,01,17,13.70
2015,05,19,01,18,13.60
2015,05,19,01,19,13.60
2015,05,19,01,20,13.60
2015,05,19,01,21,13.60
2015,05,19,01,22,13.60
2015,05,19,01,23,13.60
2015,05,19,01,24,13.50
2015,05,19,01,25,13.50
2015,05,19,01,26,13.50
2015,05,19,01,27,13.50
2015,05,19,01,28,13.50
2015,05,19,01,29,13.40
2015,05,19,01,30,13.40
2015,05,19,01,31,13.40
2015,05,19,01,32,13.40
2015,05,19,01,33,13.40
2015,05,19,01,34,13.40
2015,05,19,01,35,13.30
2015,05,19,01,36,13.30
2015,05,19,01,37,13.30
2015,05,19,01,38,13.30
2015,05,19,01,39,13.30
2015,05,19,01,40,13.20
2015,05,19,01,41,13.20
2015,05,19,01,42,13.20
2015,05,19,01,43,13.20
2015,05,19,01,44,13.20
2015,05,19,01,45,13.10
2015,05,19,01,46,13.10
2015,05,19,01,47,13.10
2015,05,19,01,48,13.10
2015,05,19,01,49,13.10
2015,05,19,01,50,13.10
2015,05,19,01,51,13.00
2015,05,19,01,52,13.00
2015,05,19,01,53,13.00
2015,05,19,01,54,13.00
2015,05,19,01,55,13.00
2015,05,19,01,56,13.00
2015,05,19,01,57,12.90
2015,05,19,01,58,12.90
2015,05,19,01,59,12.90
2015,05,19,02,00,12.90
2015,05,19,02,01,12.90
2015,05,19,02,02,12.90
2015,05,19,02,03,12.90
2015,05,19,02,04,12.90
2015,05,19,02,05,12.90
2015,05,19,02,06,12.90
2015,05,19,02,07,12.80
2015,05,19,02,08,12.80
2015,05,19,02,09,12.80
2015,05,19,02,10,12.80
2015,05,19,02,11,12.80
2015,05,19,02,12,12.80
2015,05,19,02,13,12.70
2015,05,19,02,14,12.70
2015,05,19,02,15,12.70
2015,05,19,02,16,12.70
2015,05,19,02,17,12.70
2015,05,19,02,18,12.70
2015,05,19,02,19,12.60
2015,05,19,02,20,12.60
2015,05,19,02,21,12.60
2015,05,19,02,22,12.60
2015,05,19,02,23,12.60
2015,05,19,02,24,12.60
2015,05,19,02,25,12.60
2015,05,19,02,26,12.50
2015,05,19,02,27,12.50
2015,05,19,02,28,12.50
2015,05,19,02,29,12.50
2015,05,19,02,30,12.40
2015,05,19,02,31,12.40
2015,05,19,02,32,12.40
2015,05,19,02,33,12.40
2015,05,19,02,34,12.40
2015,05,19,02,35,12.30
2015,05,19,02,36,12.30
2015,05,19,02,37,12.30
2015,05,19,02,38,12.30
2015,05,19,02,39,12.30
2015,05,19,02,40,12.20
2015,05,19,02,41,12.20
2015,05,19,02,42,12.20
2015,05,19,02,43,12.20
2015,05,19,02,44,12.20
2015,05,19,02,45,12.10
2015,05,19,02,46,12.10
2015,05,19,02,47,12.10
2015,05,19,02,48,12.10
2015,05,19,02,49,12.10
2015,05,19,02,50,12.00
2015,05,19,02,51,12.00
2015,05,19,02,52,12.00
2015,05,19,02,53,11.90
2015,05,19,02,54,11.90
2015,05,19,02,55,11.90
2015,05,19,02,56,11.90
2015,05,19,02,57,11.90
2015,05,19,02,58,11.90
2015,05,19,02,59,11.90
2015,05,19,03,00,11.90
2015,05,19,03,01,11.90
2015,05,19,03,02,11.80
2015,05,19,03,03,11.80
2015,05,19,03,04,11.80
2015,05,19,03,05,11.80
2015,05,19,03,06,11.80
2015,05,19,03,07,11.80
2015,05,19,03,08,11.70
2015,05,19,03,09,11.70
2015,05,19,03,10,11.70
2015,05,19,03,11,11.70
2015,05,19,03,12,11.70
2015,05,19,03,13,11.70
2015,05,19,03,14,11.70
2015,05,19,03,15,11.60
2015,05,19,03,16,11.60
2015,05,19,03,17,11.60
2015,05,19,03,18,11.60
2015,05,19,03,19,11.60
2015,05,19,03,20,11.60
2015,05,19,03,21,11.60
2015,05,19,03,22,11.60
2015,05,19,03,23,11.60
2015,05,19,03,24,11.60
2015,05,19,03,25,11.50
2015,05,19,03,26,11.50
2015,05,19,03,27,11.50
2015,05,19,03,28,11.50
2015,05,19,03,29,11.50
2015,05,19,03,30,11.40
2015,05,19,03,31,11.40
2015,05,19,03,32,11.40
2015,05,19,03,33,11.40
2015,05,19,03,34,11.40
2015,05,19,03,35,11.40
2015,05,19,03,36,11.40
2015,05,19,03,37,11.40
2015,05,19,03,38,11.40
2015,05,19,03,39,11.40
2015,05,19,03,40,11.30
2015,05,19,03,41,11.30
2015,05,19,03,42,11.30
2015,05,19,03,43,11.30
2015,05,19,03,44,11.30
2015,05,19,03,45,11.30
2015,05,19,03,46,11.20
2015,05,19,03,47,11.20
2015,05,19,03,48,11.20
2015,05,19,03,49,11.20
2015,05,19,03,50,11.20
2015,05,19,03,51,11.20
2015,05,19,03,52,11.20
2015,05,19,03,53,11.10
2015,05,19,03,54,11.10
2015,05,19,03,55,11.10
2015,05,19,03,56,11.10
2015,05,19,03,57,11.10
2015,05,19,03,58,11.10
2015,05,19,03,59,11.10
2015,05,19,04,00,11.10
2015,05,19,04,01,11.10
2015,05,19,04,02,11.10
2015,05,19,04,03,11.10
2015,05,19,04,04,11.10
2015,05,19,04,05,11.10
2015,05,19,04,06,11.00
2015,05,19,04,07,11.00
2015,05,19,04,08,11.00
2015,05,19,04,09,11.00
2015,05,19,04,10,11.00
2015,05,19,04,11,11.00
2015,05,19,04,12,11.00
2015,05,19,04,13,11.00
2015,05,19,04,14,11.00
2015,05,19,04,15,11.00
2015,05,19,04,16,11.00
2015,05,19,04,17,11.00
2015,05,19,04,18,11.00
2015,05,19,04,19,11.00
2015,05,19,04,20,11.00
2015,05,19,04,21,11.00
2015,05,19,04,22,10.90
2015,05,19,04,23,10.90
2015,05,19,04,24,10.90
2015,05,19,04,25,10.90
2015,05,19,04,26,10.90
2015,05,19,04,27,10.90
2015,05,19,04,28,10.90
2015,05,19,04,29,10.90
2015,05,19,04,30,10.80
2015,05,19,04,31,10.90
2015,05,19,04,32,10.80
2015,05,19,04,33,10.80
2015,05,19,04,34,10.80
2015,05,19,04,35,10.80
2015,05,19,04,36,10.80
2015,05,19,04,37,10.80
2015,05,19,04,38,10.80
2015,05,19,04,39,10.80
2015,05,19,04,40,10.70
2015,05,19,04,41,10.70
2015,05,19,04,42,10.70
2015,05,19,04,43,10.70
2015,05,19,04,44,10.70
2015,05,19,04,45,10.70
2015,05,19,04,46,10.60
2015,05,19,04,47,10.60
2015,05,19,04,48,10.60
2015,05,19,04,49,10.60
2015,05,19,04,50,10.60
2015,05,19,04,51,10.60
2015,05,19,04,52,10.50
2015,05,19,04,53,10.50
2015,05,19,04,54,10.50
2015,05,19,04,55,10.50
2015,05,19,04,56,10.50
2015,05,19,04,57,10.50
2015,05,19,04,58,10.40
2015,05,19,04,59,10.40
2015,05,19,05,00,10.40
2015,05,19,05,01,10.40
2015,05,19,05,02,10.40
2015,05,19,05,03,10.40
2015,05,19,05,04,10.40
2015,05,19,05,05,10.40
2015,05,19,05,06,10.40
2015,05,19,05,07,10.40
2015,05,19,05,08,10.40
2015,05,19,05,09,10.40
2015,05,19,05,10,10.40
2015,05,19,05,11,10.40
2015,05,19,05,12,10.40
2015,05,19,05,13,10.40
2015,05,19,05,14,10.40
2015,05,19,05,15,10.30
2015,05,19,05,16,10.30
2015,05,19,05,17,10.30
2015,05,19,05,18,10.30
2015,05,19,05,19,10.30
2015,05,19,05,20,10.30
2015,05,19,05,21,10.30
2015,05,19,05,22,10.30
2015,05,19,05,23,10.30
2015,05,19,05,24,10.30
2015,05,19,05,25,10.30
2015,05,19,05,26,10.20
2015,05,19,05,27,10.20
2015,05,19,05,28,10.20
2015,05,19,05,29,10.20
2015,05,19,05,30,10.20
2015,05,19,05,31,10.20
2015,05,19,05,32,10.20
2015,05,19,05,33,10.20
2015,05,19,05,34,10.20
2015,05,19,05,35,10.20
2015,05,19,05,36,10.10
2015,05,19,05,37,10.10
2015,05,19,05,38,10.10
2015,05,19,05,39,10.10
2015,05,19,05,40,10.10
2015,05,19,05,41,10.10
2015,05,19,05,42,10.10
2015,05,19,05,43,10.10
2015,05,19,05,44,10.10
2015,05,19,05,45,10.10
2015,05,19,05,46,10.10
2015,05,19,05,47,10.10
2015,05,19,05,48,10.10
2015,05,19,05,49,10.10
2015,05,19,05,50,10.10
2015,05,19,05,51,10.10
2015,05,19,05,52,10.10
2015,05,19,05,53,10.20
2015,05,19,05,54,10.20
2015,05,19,05,55,10.20
2015,05,19,05,56,10.20
2015,05,19,05,57,10.20
2015,05,19,05,58,10.20
2015,05,19,05,59,10.20
2015,05,19,06,00,10.20
2015,05,19,06,01,10.20
2015,05,19,06,02,10.20
2015,05,19,06,03,10.30
2015,05,19,06,04,10.30
2015,05,19,06,05,10.30
2015,05,19,06,06,10.30
2015,05,19,06,07,10.30
2015,05,19,06,08,10.30
2015,05,19,06,09,10.30
2015,05,19,06,10,10.30
2015,05,19,06,11,10.30
2015,05,19,06,12,10.30
2015,05,19,06,13,10.30
2015,05,19,06,14,10.40
2015,05,19,06,15,10.50
2015,05,19,06,16,10.50
2015,05,19,06,17,10.50
2015,05,19,06,18,10.50
2015,05,19,06,19,10.50
2015,05,19,06,20,10.50
2015,05,19,06,21,10.60
2015,05,19,06,22,10.60
2015,05,19,06,23,10.60
2015,05,19,06,24,10.60
2015,05,19,06,25,10.60
2015,05,19,06,26,10.60
2015,05,19,06,27,10.70
2015,05,19,06,28,10.70
2015,05,19,06,29,10.70
2015,05,19,06,30,10.70
2015,05,19,06,31,10.70
2015,05,19,06,32,10.80
2015,05,19,06,33,10.80
2015,05,19,06,34,10.80
2015,05,19,06,35,10.90
2015,05,19,06,36,10.90
2015,05,19,06,37,10.90
2015,05,19,06,38,11.00
2015,05,19,06,39,11.00
2015,05,19,06,40,11.10
2015,05,19,06,41,11.10
2015,05,19,06,42,11.20
2015,05,19,06,43,11.20
2015,05,19,06,44,11.20
2015,05,19,06,45,11.30
2015,05,19,06,46,11.30
2015,05,19,06,47,11.40
2015,05,19,06,48,11.40
2015,05,19,06,49,11.40
2015,05,19,06,50,11.50
2015,05,19,06,51,11.50
2015,05,19,06,52,11.60
2015,05,19,06,53,11.60
2015,05,19,06,54,11.60
2015,05,19,06,55,11.70
2015,05,19,06,56,11.70
2015,05,19,06,57,11.70
2015,05,19,06,58,11.80
2015,05,19,06,59,11.80
2015,05,19,07,00,11.80
2015,05,19,07,01,11.90
2015,05,19,07,02,12.00
2015,05,19,07,03,12.00
2015,05,19,07,04,12.10
2015,05,19,07,05,12.20
2015,05,19,07,06,12.20
2015,05,19,07,07,12.30
2015,05,19,07,08,12.30
2015,05,19,07,09,12.40
2015,05,19,07,10,12.40
2015,05,19,07,11,12.50
2015,05,19,07,12,12.60
2015,05,19,07,13,12.70
2015,05,19,07,14,12.70
2015,05,19,07,15,12.80
2015,05,19,07,16,12.90
2015,05,19,07,17,12.90
2015,05,19,07,18,13.00
2015,05,19,07,19,13.00
2015,05,19,07,20,13.10
2015,05,19,07,21,13.10
2015,05,19,07,22,13.20
2015,05,19,07,23,13.20
2015,05,19,07,24,13.30
2015,05,19,07,25,13.40
2015,05,19,07,26,13.40
2015,05,19,07,27,13.50
2015,05,19,07,28,13.50
2015,05,19,07,29,13.60
2015,05,19,07,30,13.60
2015,05,19,07,31,13.70
2015,05,19,07,32,13.70
2015,05,19,07,33,13.80
2015,05,19,07,34,13.80
2015,05,19,07,35,13.90
2015,05,19,07,36,13.90
2015,05,19,07,37,13.90
2015,05,19,07,38,14.00
2015,05,19,07,39,14.00
2015,05,19,07,40,14.10
2015,05,19,07,41,14.10
2015,05,19,07,42,14.10
2015,05,19,07,43,14.20
2015,05,19,07,44,14.20
2015,05,19,07,45,14.30
2015,05,19,07,46,14.30
2015,05,19,07,47,14.30
2015,05,19,07,48,14.40
2015,05,19,07,49,14.40
2015,05,19,07,50,14.50
2015,05,19,07,51,14.50
2015,05,19,07,52,14.60
2015,05,19,07,53,14.60
2015,05,19,07,54,14.70
2015,05,19,07,55,14.70
2015,05,19,07,56,14.80
2015,05,19,07,57,14.90
2015,05,19,07,58,14.90
2015,05,19,07,59,15.00
2015,05,19,08,00,15.00
2015,05,19,08,01,15.00
2015,05,19,08,02,15.10
2015,05,19,08,03,15.10
2015,05,19,08,04,15.10
2015,05,19,08,05,15.10
2015,05,19,08,06,15.20
2015,05,19,08,07,15.20
2015,05,19,08,08,15.30
2015,05,19,08,09,15.30
2015,05,19,08,10,15.30
2015,05,19,08,11,15.30
2015,05,19,08,12,15.40
2015,05,19,08,13,15.40
2015,05,19,08,14,15.50
2015,05,19,08,15,15.50
2015,05,19,08,16,15.60
2015,05,19,08,17,15.60
2015,05,19,08,18,15.70
2015,05,19,08,19,15.70
2015,05,19,08,20,15.70
2015,05,19,08,21,15.70
2015,05,19,08,22,15.80
2015,05,19,08,23,15.80
2015,05,19,08,24,15.90
2015,05,19,08,25,15.90
2015,05,19,08,26,16.00
2015,05,19,08,27,16.00
2015,05,19,08,28,16.10
2015,05,19,08,29,16.10
2015,05,19,08,30,16.10
2015,05,19,08,31,16.20
2015,05,19,08,32,16.20
2015,05,19,08,33,16.20
2015,05,19,08,34,16.20
2015,05,19,08,35,16.30
2015,05,19,08,36,16.30
2015,05,19,08,37,16.30
2015,05,19,08,38,16.40
2015,05,19,08,39,16.40
2015,05,19,08,40,16.40
2015,05,19,08,41,16.40
2015,05,19,08,42,16.40
2015,05,19,08,43,16.50
2015,05,19,08,44,16.50
2015,05,19,08,45,16.50
2015,05,19,08,46,16.60
2015,05,19,08,47,16.60
2015,05,19,08,48,16.70
2015,05,19,08,49,16.80
2015,05,19,08,50,16.80
2015,05,19,08,51,16.90
2015,05,19,08,52,16.90
2015,05,19,08,53,17.00
2015,05,19,08,54,17.10
2015,05,19,08,55,17.20
2015,05,19,08,56,17.20
2015,05,19,08,57,17.30
2015,05,19,08,58,17.30
2015,05,19,08,59,17.40
2015,05,19,09,00,17.40
2015,05,19,09,01,17.50
2015,05,19,09,02,17.50
2015,05,19,09,03,17.60
2015,05,19,09,04,17.70
2015,05,19,09,05,17.70
2015,05,19,09,06,17.80
2015,05,19,09,07,17.90
2015,05,19,09,08,18.00
2015,05,19,09,09,18.10
2015,05,19,09,10,18.20
2015,05,19,09,11,18.20
2015,05,19,09,12,18.30
2015,05,19,09,13,18.40
2015,05,19,09,14,18.50
2015,05,19,09,15,18.60
2015,05,19,09,16,18.60
2015,05,19,09,17,18.70
2015,05,19,09,18,18.80
2015,05,19,09,19,18.80
2015,05,19,09,20,18.80
2015,05,19,09,21,18.80
2015,05,19,09,22,18.90
2015,05,19,09,23,18.90
2015,05,19,09,24,18.90
2015,05,19,09,25,18.90
2015,05,19,09,26,18.90
2015,05,19,09,27,18.90
2015,05,19,09,28,19.00
2015,05,19,09,29,19.00
2015,05,19,09,30,19.00
2015,05,19,09,31,19.10
2015,05,19,09,32,19.10
2015,05,19,09,33,19.10
2015,05,19,09,34,19.20
2015,05,19,09,35,19.20
2015,05,19,09,36,19.20
2015,05,19,09,37,19.30
2015,05,19,09,38,19.30
2015,05,19,09,39,19.30
2015,05,19,09,40,19.40
2015,05,19,09,41,19.40
2015,05,19,09,42,19.50
2015,05,19,09,43,19.50
2015,05,19,09,44,19.60
2015,05,19,09,45,19.70
2015,05,19,09,46,19.70
2015,05,19,09,47,19.80
2015,05,19,09,48,19.80
2015,05,19,09,49,19.80
2015,05,19,09,50,19.80
2015,05,19,09,51,19.90
2015,05,19,09,52,19.90
2015,05,19,09,53,19.90
2015,05,19,09,54,19.90
2015,05,19,09,55,19.90
2015,05,19,09,56,19.90
2015,05,19,09,57,20.00
2015,05,19,09,58,20.00
2015,05,19,09,59,20.10
2015,05,19,10,00,20.10
2015,05,19,10,01,20.20
2015,05,19,10,02,20.20
2015,05,19,10,03,20.20
2015,05,19,10,04,20.20
2015,05,19,10,05,20.20
2015,05,19,10,06,20.20
2015,05,19,10,07,20.20
2015,05,19,10,08,20.10
2015,05,19,10,09,20.10
2015,05,19,10,10,20.10
2015,05,19,10,11,20.10
2015,05,19,10,12,20.10
2015,05,19,10,13,20.10
2015,05,19,10,14,20.10
2015,05,19,10,15,20.10
2015,05,19,10,16,20.10
2015,05,19,10,17,20.20
2015,05,19,10,18,20.20
2015,05,19,10,19,20.20
2015,05,19,10,20,20.30
2015,05,19,10,21,20.30
2015,05,19,10,22,20.30
2015,05,19,10,23,20.40
2015,05,19,10,24,20.40
2015,05,19,10,25,20.40
2015,05,19,10,26,20.40
2015,05,19,10,27,20.50
2015,05,19,10,28,20.50
2015,05,19,10,29,20.50
2015,05,19,10,30,20.50
2015,05,19,10,31,20.50
2015,05,19,10,32,20.60
2015,05,19,10,33,20.60
2015,05,19,10,34,20.70
2015,05,19,10,35,20.70
2015,05,19,10,36,20.70
2015,05,19,10,37,20.80
2015,05,19,10,38,20.80
2015,05,19,10,39,20.80
2015,05,19,10,40,20.90
2015,05,19,10,41,20.90
2015,05,19,10,42,20.80
2015,05,19,10,43,20.80
2015,05,19,10,44,20.80
2015,05,19,10,45,20.80
2015,05,19,10,46,20.80
2015,05,19,10,47,20.80
2015,05,19,10,48,20.80
2015,05,19,10,49,20.80
2015,05,19,10,50,20.80
2015,05,19,10,51,20.80
2015,05,19,10,52,20.80
2015,05,19,10,53,20.80
2015,05,19,10,54,20.80
2015,05,19,10,55,20.80
2015,05,19,10,56,20.80
2015,05,19,10,57,20.80
2015,05,19,10,58,20.80
2015,05,19,10,59,20.80
2015,05,19,11,00,20.70
2015,05,19,11,01,20.70
2015,05,19,11,02,20.60
2015,05,19,11,03,20.50
2015,05,19,11,04,20.50
2015,05,19,11,05,20.40
2015,05,19,11,06,20.40
2015,05,19,11,07,20.40
2015,05,19,11,08,20.40
2015,05,19,11,09,20.40
2015,05,19,11,10,20.30
2015,05,19,11,11,20.30
2015,05,19,11,12,20.20
2015,05,19,11,13,20.30
2015,05,19,11,14,20.30
2015,05,19,11,15,20.30
2015,05,19,11,16,20.30
2015,05,19,11,17,20.30
2015,05,19,11,18,20.30
2015,05,19,11,19,20.30
2015,05,19,11,20,20.30
2015,05,19,11,21,20.30
2015,05,19,11,22,20.20
2015,05,19,11,23,20.20
2015,05,19,11,24,20.20
2015,05,19,11,25,20.20
2015,05,19,11,26,20.20
2015,05,19,11,27,20.10
2015,05,19,11,28,20.10
2015,05,19,11,29,20.10
2015,05,19,11,30,20.10
2015,05,19,11,31,20.00
2015,05,19,11,32,20.00
2015,05,19,11,33,20.00
2015,05,19,11,34,20.00
2015,05,19,11,35,20.00
2015,05,19,11,36,20.00
2015,05,19,11,37,20.00
2015,05,19,11,38,20.00
2015,05,19,11,39,20.00
2015,05,19,11,40,20.00
2015,05,19,11,41,20.10
2015,05,19,11,42,20.10
2015,05,19,11,43,20.10
2015,05,19,11,44,20.10
2015,05,19,11,45,20.10
2015,05,19,11,46,20.10
2015,05,19,11,47,20.20
2015,05,19,11,48,20.30
2015,05,19,11,49,20.30
2015,05,19,11,50,20.40
2015,05,19,11,51,20.50
2015,05,19,11,52,20.50
2015,05,19,11,53,20.60
2015,05,19,11,54,20.70
2015,05,19,11,55,20.70
2015,05,19,11,56,20.80
2015,05,19,11,57,20.80
2015,05,19,11,58,20.80
2015,05,19,11,59,20.70
2015,05,19,12,00,20.70
2015,05,19,12,01,20.70
2015,05,19,12,02,20.80
2015,05,19,12,03,20.80
2015,05,19,12,04,20.80
2015,05,19,12,05,20.90
2015,05,19,12,06,21.00
2015,05,19,12,07,21.10
2015,05,19,12,08,21.30
2015,05,19,12,09,21.30
2015,05,19,12,10,21.40
2015,05,19,12,11,21.50
2015,05,19,12,12,21.50
2015,05,19,12,13,21.60
2015,05,19,12,14,21.60
2015,05,19,12,15,21.70
2015,05,19,12,16,21.70
2015,05,19,12,17,21.70
2015,05,19,12,18,21.80
2015,05,19,12,19,21.80
2015,05,19,12,20,21.90
2015,05,19,12,21,22.00
2015,05,19,12,22,22.10
2015,05,19,12,23,22.10
2015,05,19,12,24,22.20
2015,05,19,12,25,22.30
2015,05,19,12,26,22.20
2015,05,19,12,27,22.20
2015,05,19,12,28,22.20
2015,05,19,12,29,22.20
2015,05,19,12,30,22.20
2015,05,19,12,31,22.20
2015,05,19,12,32,22.30
2015,05,19,12,33,22.30
2015,05,19,12,34,22.30
2015,05,19,12,35,22.30
2015,05,19,12,36,22.30
2015,05,19,12,37,22.20
2015,05,19,12,38,22.20
2015,05,19,12,39,22.10
2015,05,19,12,40,22.10
2015,05,19,12,41,22.00
2015,05,19,12,42,22.00
2015,05,19,12,43,21.90
2015,05,19,12,44,21.90
2015,05,19,12,45,21.90
2015,05,19,12,46,21.90
2015,05,19,12,47,21.90
2015,05,19,12,48,21.90
2015,05,19,12,49,21.90
2015,05,19,12,50,22.00
2015,05,19,12,51,22.10
2015,05,19,12,52,22.10
2015,05,19,12,53,22.20
2015,05,19,12,54,22.10
2015,05,19,12,55,22.00
2015,05,19,12,56,21.90
2015,05,19,12,57,21.80
2015,05,19,12,58,21.80
2015,05,19,12,59,21.80
2015,05,19,13,00,21.70
2015,05,19,13,01,21.70
2015,05,19,13,02,21.70
2015,05,19,13,03,21.70
2015,05,19,13,04,21.70
2015,05,19,13,05,21.70
2015,05,19,13,06,21.70
2015,05,19,13,07,21.70
2015,05,19,13,08,21.80
2015,05,19,13,09,21.90
2015,05,19,13,10,22.00
2015,05,19,13,11,22.00
2015,05,19,13,12,22.10
2015,05,19,13,13,22.20
2015,05,19,13,14,22.30
2015,05,19,13,15,22.40
2015,05,19,13,16,22.50
2015,05,19,13,17,22.50
2015,05,19,13,18,22.60
2015,05,19,13,19,22.60
2015,05,19,13,20,22.70
2015,05,19,13,21,22.80
2015,05,19,13,22,22.80
2015,05,19,13,23,22.80
2015,05,19,13,24,22.80
2015,05,19,13,25,22.90
2015,05,19,13,26,22.90
2015,05,19,13,27,23.00
2015,05,19,13,28,23.10
2015,05,19,13,29,23.20
2015,05,19,13,30,23.30
2015,05,19,13,31,23.40
2015,05,19,13,32,23.50
2015,05,19,13,33,23.60
2015,05,19,13,34,23.60
2015,05,19,13,35,23.60
2015,05,19,13,36,23.60
2015,05,19,13,37,23.60
2015,05,19,13,38,23.70
2015,05,19,13,39,23.70
2015,05,19,13,40,23.70
2015,05,19,13,41,23.80
2015,05,19,13,42,23.80
2015,05,19,13,43,23.80
2015,05,19,13,44,23.80
2015,05,19,13,45,23.80
2015,05,19,13,46,23.80
2015,05,19,13,47,23.90
2015,05,19,13,48,23.90
2015,05,19,13,49,24.00
2015,05,19,13,50,24.00
2015,05,19,13,51,24.10
2015,05,19,13,52,24.10
2015,05,19,13,53,24.20
2015,05,19,13,54,24.20
2015,05,19,13,55,24.20
2015,05,19,13,56,24.30
2015,05,19,13,57,24.30
2015,05,19,13,58,24.40
2015,05,19,13,59,24.40
2015,05,19,14,00,24.40
2015,05,19,14,01,24.40
2015,05,19,14,02,24.40
2015,05,19,14,03,24.40
2015,05,19,14,04,24.40
2015,05,19,14,05,24.40
2015,05,19,14,06,24.40
2015,05,19,14,07,24.40
2015,05,19,14,08,24.40
2015,05,19,14,09,24.50
2015,05,19,14,10,24.50
2015,05,19,14,11,24.60
2015,05,19,14,12,24.50
2015,05,19,14,13,24.50
2015,05,19,14,14,24.60
2015,05,19,14,15,24.60
2015,05,19,14,16,24.70
2015,05,19,14,17,24.80
2015,05,19,14,18,24.80
2015,05,19,14,19,24.80
2015,05,19,14,20,24.70
2015,05,19,14,21,24.60
2015,05,19,14,22,24.60
2015,05,19,14,23,24.60
2015,05,19,14,24,24.50
2015,05,19,14,25,24.50
2015,05,19,14,26,24.40
2015,05,19,14,27,24.30
2015,05,19,14,28,24.20
2015,05,19,14,29,24.10
2015,05,19,14,30,24.00
2015,05,19,14,31,23.90
2015,05,19,14,32,23.80
2015,05,19,14,33,23.60
2015,05,19,14,34,23.50
2015,05,19,14,35,23.40
2015,05,19,14,36,23.40
2015,05,19,14,37,23.40
2015,05,19,14,38,23.50
2015,05,19,14,39,23.60
2015,05,19,14,40,23.60
2015,05,19,14,41,23.60
2015,05,19,14,42,23.50
2015,05,19,14,43,23.40
2015,05,19,14,44,23.40
2015,05,19,14,45,23.30
2015,05,19,14,46,23.30
2015,05,19,14,47,23.40
2015,05,19,14,48,23.50
2015,05,19,14,49,23.60
2015,05,19,14,50,23.70
2015,05,19,14,51,23.80
2015,05,19,14,52,23.80
2015,05,19,14,53,23.90
2015,05,19,14,54,24.00
2015,05,19,14,55,24.10
2015,05,19,14,56,24.20
2015,05,19,14,57,24.30
2015,05,19,14,58,24.40
2015,05,19,14,59,24.50
2015,05,19,15,00,24.60
2015,05,19,15,01,24.60
2015,05,19,15,02,24.70
2015,05,19,15,03,24.70
2015,05,19,15,04,24.70
2015,05,19,15,05,24.70
2015,05,19,15,06,24.80
2015,05,19,15,07,24.80
2015,05,19,15,08,24.80
2015,05,19,15,09,24.90
2015,05,19,15,10,24.90
2015,05,19,15,11,24.90
2015,05,19,15,12,24.90
2015,05,19,15,13,24.90
2015,05,19,15,14,24.80
2015,05,19,15,15,24.70
2015,05,19,15,16,24.60
2015,05,19,15,17,24.60
2015,05,19,15,18,24.50
2015,05,19,15,19,24.50
2015,05,19,15,20,24.40
2015,05,19,15,21,24.40
2015,05,19,15,22,24.40
2015,05,19,15,23,24.50
2015,05,19,15,24,24.70
2015,05,19,15,25,24.90
2015,05,19,15,26,25.00
2015,05,19,15,27,25.20
2015,05,19,15,28,25.30
2015,05,19,15,29,25.50
2015,05,19,15,30,25.60
2015,05,19,15,31,25.60
2015,05,19,15,32,25.60
2015,05,19,15,33,25.60
2015,05,19,15,34,25.60
2015,05,19,15,35,25.60
2015,05,19,15,36,25.50
2015,05,19,15,37,25.40
2015,05,19,15,38,25.30
2015,05,19,15,39,25.20
2015,05,19,15,40,25.10
2015,05,19,15,41,25.00
2015,05,19,15,42,24.80
2015,05,19,15,43,24.70
2015,05,19,15,44,24.60
2015,05,19,15,45,24.50
2015,05,19,15,46,24.50
2015,05,19,15,47,24.40
2015,05,19,15,48,24.40
2015,05,19,15,49,24.40
2015,05,19,15,50,24.40
2015,05,19,15,51,24.40
2015,05,19,15,52,24.40
2015,05,19,15,53,24.40
2015,05,19,15,54,24.40
2015,05,19,15,55,24.40
2015,05,19,15,56,24.40
2015,05,19,15,57,24.30
2015,05,19,15,58,24.30
2015,05,19,15,59,24.20
2015,05,19,16,00,24.20
2015,05,19,16,01,24.20
2015,05,19,16,02,24.20
2015,05,19,16,03,24.20
2015,05,19,16,04,24.20
2015,05,19,16,05,24.20
2015,05,19,16,06,24.30
2015,05,19,16,07,24.40
2015,05,19,16,08,24.40
2015,05,19,16,09,24.50
2015,05,19,16,10,24.50
2015,05,19,16,11,24.60
2015,05,19,16,12,24.60
2015,05,19,16,13,24.60
2015,05,19,16,14,24.60
2015,05,19,16,15,24.70
2015,05,19,16,16,24.70
2015,05,19,16,17,24.70
2015,05,19,16,18,24.70
2015,05,19,16,19,24.70
2015,05,19,16,20,24.70
2015,05,19,16,21,24.80
2015,05,19,16,22,24.90
2015,05,19,16,23,25.00
2015,05,19,16,24,25.00
2015,05,19,16,25,25.10
2015,05,19,16,26,25.10
2015,05,19,16,27,25.20
2015,05,19,16,28,25.30
2015,05,19,16,29,25.30
2015,05,19,16,30,25.40
2015,05,19,16,31,25.50
2015,05,19,16,32,25.60
2015,05,19,16,33,25.70
2015,05,19,16,34,25.90
2015,05,19,16,35,26.00
2015,05,19,16,36,26.10
2015,05,19,16,37,26.20
2015,05,19,16,38,26.30
2015,05,19,16,39,26.30
2015,05,19,16,40,26.40
2015,05,19,16,41,26.50
2015,05,19,16,42,26.60
2015,05,19,16,43,26.60
2015,05,19,16,44,26.60
2015,05,19,16,45,26.60
2015,05,19,16,46,26.60
2015,05,19,16,47,26.60
2015,05,19,16,48,26.60
2015,05,19,16,49,26.60
2015,05,19,16,50,26.60
2015,05,19,16,51,26.60
2015,05,19,16,52,26.60
2015,05,19,16,53,26.70
2015,05,19,16,54,26.70
2015,05,19,16,55,26.70
2015,05,19,16,56,26.70
2015,05,19,16,57,26.70
2015,05,19,16,58,26.70
2015,05,19,16,59,26.70
2015,05,19,17,00,26.70
2015,05,19,17,01,26.60
2015,05,19,17,02,26.60
2015,05,19,17,03,26.60
2015,05,19,17,04,26.60
2015,05,19,17,05,26.60
2015,05,19,17,06,26.60
2015,05,19,17,07,26.60
2015,05,19,17,08,26.60
2015,05,19,17,09,26.60
2015,05,19,17,10,26.60
2015,05,19,17,11,26.70
2015,05,19,17,12,26.80
2015,05,19,17,13,26.80
2015,05,19,17,14,26.90
2015,05,19,17,15,26.90
2015,05,19,17,16,27.00
2015,05,19,17,17,27.10
2015,05,19,17,18,27.10
2015,05,19,17,19,27.10